MOMENTUS-X1 (44408 NORAD) Tracking and Keplerian Element Data

This shows tracking and keplerian element data for the satellite.

Feedback or suggestion? Click here.




ElementValue
Catalog44408
NameMOMENTUS-X1
Epoch Orbit429
Epoch Day214.89249863
Epoch Year2019
RAAN176.285
Inclination97.4913
Eccentricity0.0024316
Argument of Perigee148.4645
Mean Anonmoly211.8049
Mean Motion15.11857838
Decay Rate1.58E-06
L11 44408U 19038Y 19214.89249863 .00000158 00000-0 12972-4 0 9996
L22 44408 97.4913 176.2850 0024316 148.4645 211.8049 15.11857838 4299

Live tracking and technical data element details for MOMENTUS-X1 (NORAD 44408). MOMENTUS-X1 can be tracked NOW for your location showing map with azimuth and elevation plus other details from your city location.

Track the satellite on the map from your city or location and see movement details for azimuth, elevation, latitude, longitude, range, height, and movement on the map or in text.







IsCatalogInMostPopularTable: catalog: 44408, numindb: 16
Update: records affected: 1



GetName: 44408 MOMENTUS-X1

Hit Count: updated at: Wed, 23 Oct 2019 00:48:01 GMT